Theta_e
325 327 326 329 328 330 331 328 335 335 338 337 336 335 334 335 337 340 340 339 339 339 337 338 339 340 341 343 341 338 335 335 334 333 332 335 336 336 335 338 336 332 331
315 323 325 327 325 328 328 327 330 335 338 338 333 335 333 334 335 335 336 337 336 337 335 333 334 338 338 333 331 333 334 335 336 331 326 324 327 328 322 328 329 329 327
300 313 324 325 324 322 324 327 327 330 334 329 328 328 328 328 329 330 332 335 336 336 336 335 335 335 335 332 330 328 333 330 332 333 328 318 317 317 319 321 322 325 323
298 304 320 321 321 322 322 325 326 329 329 328 328 327 325 324 326 326 331 333 335 336 339 338 338 338 335 333 331 335 334 334 331 330 331 326 319 312 312 320 320 321 321
296 299 316 322 320 319 321 324 325 326 327 326 326 324 323 325 326 325 325 326 332 334 336 338 339 335 333 335 336 336 335 334 329 328 327 326 324 318 315 316 318 319 321
309 306 310 314 318 323 326 328 328 326 326 326 325 325 324 324 323 324 326 325 327 324 325 327 329 331 335 335 334 335 334 333 332 330 327 322 318 317 315 314 315 316 320
312 312 311 316 318 319 320 321 321 318 320 318 318 317 317 317 317 318 317 316 316 317 317 320 320 321 323 323 324 326 328 328 328 327 325 324 321 321 318 315 319 318 324
310 311 314 315 313 313 314 314 314 313 314 314 314 314 314 313 313 313 314 314 315 315 316 316 316 316 316 317 317 318 319 319 319 318 319 321 322 324 323 321 319 315 318
310 310 310 309 310 310 311 311 311 311 312 313 314 313 313 313 313 313 313 313 313 313 312 312 312 312 312 312 312 312 311 312 314 312 312 312 313 311 313 314 315 313 307
308 308 307 307 308 309 309 310 311 310 311 312 312 311 311 312 311 310 309 308 308 308 308 308 308 309 309 308 308 307 309 308 308 308 307 307 307 307 310 309 309 309 306
303 301 301 302 302 305 306 306 308 307 306 306 306 307 307 307 306 305 305 305 305 305 305 306 306 305 305 305 305 304 306 305 305 305 304 304 305 303 304 303 305 306 307
298 299 300 300 300 300 300 300 301 302 302 304 305 305 304 304 303 303 304 304 303 303 303 304 304 304 303 303 303 302 303 303 303 302 302 302 303 302 303 302 302 302 303
298 297 298 298 298 298 299 299 300 301 302 303 302 301 301 301 301 301 302 302 302 301 302 302 302 302 303 302 303 302 302 303 302 302 302 302 302 301 301 300 299 300 300
297 296 296 296 296 297 298 298 299 300 300 300 299 299 299 299 300 301 301 301 301 301 301 301 301 302 302 302 302 302 302 302 302 303 302 302 302 302 301 301 300 300 299
295 295 294 294 295 295 296 297 298 298 298 298 297 297 298 299 299 299 299 300 300 300 300 300 301 301 301 303 302 302 301 301 301 302 302 303 304 306 306 305 304 304 302
293 293 293 293 293 293 294 295 295 296 297 296 296 297 298 299 298 298 298 298 298 298 299 299 299 300 301 300 300 302 301 302 301 301 303 303 304 304 304 304 304 304 301
292 291 290 290 290 290 292 292 292 294 294 294 295 296 296 297 297 298 297 297 297 297 298 299 300 300 301 299 298 300 303 303 303 303 304 304 305 305 305 304 304 304 303
290 288 287 287 287 288 290 291 291 291 292 292 292 294 294 296 298 297 296 296 297 298 299 299 301 301 302 299 298 299 304 305 305 306 306 305 305 306 305 304 304 304 304
288 287 287 287 287 287 288 289 289 290 290 290 291 292 294 298 296 294 294 296 299 301 301 301 301 302 303 299 298 300 304 304 305 306 306 307 306 303 299 303 302 302 303
288 287 287 287 286 286 287 288 288 287 287 289 290 292 295 296 294 293 295 298 300 301 302 303 304 303 304 300 298 298 303 303 304 306 306 303 302 298 297 300 300 299 301
286 287 286 285 286 288 290 288 287 286 289 290 291 291 293 294 293 294 296 297 299 301 301 301 302 303 301 302 297 296 298 301 301 301 304 307 300 297 296 296 298 299 303
285 286 285 285 286 287 287 286 286 288 290 290 290 290 292 293 293 293 295 297 298 300 300 298 298 300 299 298 296 294 295 298 299 301 305 306 299 296 295 297 296 295 297
285 286 285 285 287 288 288 287 289 291 290 289 290 291 291 291 291 292 294 295 297 297 295 295 294 295 296 296 295 294 295 299 302 306 303 297 296 298 305 301 299 302 309
284 285 285 285 285 288 289 289 290 289 289 289 289 289 290 290 289 291 293 295 295 293 291 291 291 291 293 293 293 293 297 298 303 303 306 304 302 300 303 305 306 308 307
286 286 285 285 285 287 288 289 289 289 288 288 288 288 289 289 288 289 292 294 291 290 289 288 288 288 289 290 290 291 293 295 297 302 305 304 303 302 301 302 302 304 304
282 281 281 284 284 286 287 288 289 290 288 288 287 287 288 288 287 287 290 291 291 290 289 289 288 289 290 289 289 290 291 291 292 300 299 298 300 299 298 297 297 298 299
Wind_Speed
11 8 6 7 7 7 7 6 6 6 7 4 4 2 3 2 1 1 2 1 2 4 4 4 2 1 2 2 2 1 0 3 2 3 7 4 7 6 7 5 5 7 7
6 7 7 8 9 10 7 8 8 7 5 3 3 1 2 2 2 2 2 3 3 4 4 3 4 5 4 4 3 2 1 2 3 5 1 6 5 5 4 3 7 11 3
11 8 7 11 8 8 11 9 5 6 5 6 4 3 3 2 2 2 1 2 4 2 3 5 4 6 6 8 9 5 5 6 3 7 3 3 3 4 4 4 5 5 4
7 7 7 7 9 9 7 7 7 7 6 6 3 1 2 2 1 1 1 2 2 3 3 4 5 6 5 4 3 2 3 2 9 2 4 2 4 3 6 3 4 3 5
8 8 9 13 3 8 7 8 9 8 7 6 5 4 2 2 2 1 3 3 2 2 1 3 4 5 4 3 5 4 6 6 4 5 3 4 4 7 7 12 6 2 4
7 6 4 7 8 9 9 11 12 8 6 7 6 6 4 3 4 4 4 5 3 4 7 6 5 6 4 4 6 8 9 8 8 6 7 5 5 3 5 10 6 7 6
8 7 8 10 11 12 12 12 13 11 10 11 10 9 9 9 7 4 5 6 3 4 8 8 8 7 8 8 7 5 2 1 3 4 3 4 5 3 4 4 5 6 5
11 12 12 12 14 13 12 14 15 14 11 10 9 9 9 6 6 7 5 4 4 4 6 8 8 10 8 7 7 5 5 4 5 5 5 2 2 1 1 2 4 8 9
13 14 14 13 14 13 12 13 14 13 10 9 9 9 7 8 7 6 5 5 6 6 7 8 9 8 7 7 6 4 6 5 5 6 5 3 4 4 3 4 4 6 9
15 15 14 14 13 12 11 13 12 12 9 9 7 6 7 8 7 7 8 7 7 8 8 8 7 6 6 7 7 5 4 5 3 2 3 4 2 3 2 2 3 4 7
13 12 12 13 11 11 11 12 10 11 10 8 6 8 8 8 8 8 6 5 6 7 8 8 8 6 5 5 5 5 4 5 4 4 5 7 5 4 4 5 5 5 6
12 12 12 14 13 11 11 10 9 10 6 6 8 8 7 6 6 6 4 4 6 7 5 5 5 6 6 5 5 6 6 6 5 7 6 7 6 7 6 6 7 7 7
13 12 12 12 11 11 10 9 8 8 8 9 8 7 6 5 5 5 5 6 5 5 5 6 7 8 8 8 7 6 6 6 7 8 8 9 9 9 8 8 8 8 8
12 12 12 10 11 10 10 10 9 7 7 8 7 6 6 5 5 5 6 5 4 4 4 5 6 6 8 8 7 7 8 8 8 9 9 10 11 11 11 10 10 9 10
13 11 11 9 10 10 10 9 8 7 5 6 5 4 3 4 5 4 4 4 4 5 5 6 6 6 6 6 7 8 8 8 10 9 10 10 12 19 17 11 11 11 11
13 12 12 12 12 9 7 6 6 5 4 5 5 6 7 5 5 4 5 5 6 6 6 7 7 8 6 10 10 9 8 9 9 10 10 11 14 13 17 19 21 18 14
13 12 11 9 8 8 7 7 6 5 5 6 6 6 6 4 4 5 5 6 6 5 6 6 6 7 8 10 11 12 8 9 8 10 10 11 9 12 12 14 17 18 20
11 9 8 8 8 7 7 6 7 6 6 7 7 7 6 5 4 5 6 6 4 5 5 7 8 8 8 11 12 13 8 9 10 10 12 12 14 14 13 13 15 16 16
10 8 7 6 6 6 6 4 4 5 7 8 9 8 7 7 7 7 8 6 5 7 7 7 9 9 10 13 13 12 9 9 11 10 11 12 14 20 15 13 15 16 19
8 7 7 6 6 5 3 2 6 7 7 7 6 7 8 8 7 7 7 6 6 7 7 9 8 9 9 12 14 13 7 9 9 10 12 13 13 18 18 12 14 15 19
8 7 7 6 5 6 7 8 6 6 7 7 7 6 7 8 5 8 5 7 7 7 7 8 9 10 11 12 16 20 9 7 8 8 9 9 16 17 19 20 13 16 17
8 6 5 6 6 6 5 5 5 5 6 8 7 7 6 6 6 7 7 7 6 7 6 8 8 8 10 13 19 23 18 13 6 7 8 10 19 25 21 14 17 22 20
8 7 6 8 7 7 7 8 9 8 9 7 8 7 7 7 7 7 7 5 6 6 7 7 8 9 10 10 19 19 19 16 8 6 12 20 17 14 11 20 20 19 13
9 8 8 8 8 9 9 8 9 9 8 8 8 7 6 8 7 5 4 5 6 6 7 7 7 8 9 10 12 12 11 14 10 11 8 11 9 10 12 16 15 13 13
7 8 8 8 9 7 9 9 9 9 9 8 8 7 7 7 7 6 4 4 7 7 6 7 7 8 9 11 15 12 10 11 9 9 8 12 14 14 14 14 15 14 14
7 7 8 10 9 10 9 10 9 8 9 7 7 5 4 5 5 5 4 8 6 11 10 11 11 7 10 17 19 19 19 24 18 8 10 10 10 12 12 13 14 14 18
Wind_Direction
232 242 173 166 159 177 187 182 168 169 154 146 148 151 195 122 176 183 274 197 137 164 164 220 183 153 213 213 246 249 110 340 54 299 275 281 254 251 240 226 241 255 242
230 227 195 175 186 191 190 184 190 176 152 108 86 107 138 208 185 191 203 196 190 176 207 194 199 207 200 187 140 178 41 238 230 260 291 291 294 279 265 262 252 237 232
212 218 199 205 184 190 194 196 149 123 118 100 110 66 56 37 21 309 242 217 234 261 266 274 262 221 200 221 211 173 179 244 257 200 210 216 266 343 312 283 240 230 227
244 189 205 189 201 202 102 113 114 119 115 128 119 53 51 64 274 251 260 250 267 250 236 252 279 266 235 220 202 231 236 198 251 161 209 147 172 224 320 309 293 249 245
253 236 206 206 114 112 117 116 118 113 121 132 152 144 142 199 194 350 4 331 353 90 201 300 255 229 211 202 221 245 240 207 182 205 173 192 204 210 224 273 263 304 264
357 360 86 88 90 103 99 106 108 101 114 122 125 123 103 71 53 32 49 43 33 342 19 26 28 3 346 267 234 218 211 213 208 191 186 191 179 176 207 235 268 255 256
56 47 74 86 84 89 97 101 94 75 71 73 76 77 77 80 86 79 75 71 50 25 11 28 30 28 16 356 356 358 351 314 250 237 209 177 175 169 203 208 245 262 291
72 79 86 85 78 78 84 95 94 88 77 83 79 77 81 88 79 72 68 49 41 41 29 33 38 36 23 14 12 11 6 15 356 6 1 5 359 320 291 274 291 287 264
73 70 69 71 76 74 72 83 87 84 82 80 77 64 60 69 81 80 80 78 43 43 28 36 35 30 18 16 11 20 8 3 354 13 14 6 19 14 356 346 334 284 291
78 74 69 69 68 67 68 66 75 81 71 68 52 63 60 57 53 58 56 51 60 34 31 14 36 21 9 7 357 349 340 356 354 337 331 354 303 339 282 312 289 277 282
85 80 76 72 71 68 68 72 69 78 70 67 58 60 56 57 63 61 38 29 34 47 31 11 5 355 360 2 336 317 323 336 324 323 326 326 313 300 309 277 279 258 252
94 90 86 82 69 63 56 60 54 62 63 73 77 73 72 64 62 68 49 24 37 19 18 357 341 349 342 328 323 327 333 330 318 314 310 295 295 280 275 271 260 256 254
93 82 76 69 70 61 59 54 46 53 53 62 65 56 54 58 52 48 32 24 24 14 2 355 345 337 326 326 323 316 308 296 292 291 289 291 293 288 276 269 268 263 263
88 84 71 68 67 59 52 50 49 46 55 61 56 53 43 40 40 25 14 1 356 348 340 329 323 316 314 308 294 302 292 295 296 286 287 284 279 274 273 269 268 266 263
81 74 73 62 58 54 45 39 41 43 44 63 68 65 65 54 40 18 346 329 337 338 329 319 325 315 310 303 306 305 298 293 283 277 268 266 265 279 284 283 280 275 269
82 71 65 55 47 40 41 40 36 27 38 47 38 30 29 21 8 349 341 340 340 330 326 328 322 319 313 300 301 302 297 286 286 292 292 273 281 290 285 281 278 266 273
91 80 71 62 53 37 31 35 17 13 30 33 25 23 14 352 340 346 341 335 321 312 312 314 314 312 303 298 305 298 294 291 291 289 294 298 290 294 291 285 280 276 265
90 79 72 52 30 18 17 13 9 11 19 22 11 7 351 329 353 354 335 322 310 312 317 323 324 322 313 308 312 316 311 313 303 296 293 294 296 288 284 288 289 281 273
84 76 67 58 35 19 2 10 12 18 16 14 7 344 320 351 3 350 335 317 321 335 328 320 321 327 323 321 321 331 324 303 298 295 293 291 294 291 294 298 296 292 284
80 76 64 56 45 8 349 23 30 15 360 354 339 328 351 356 352 335 324 329 327 326 331 333 336 326 348 348 356 350 317 306 313 319 308 299 285 287 296 292 283 281 279
78 74 62 47 25 5 14 31 13 360 344 343 333 339 346 349 349 330 333 331 330 329 337 346 351 359 357 348 352 349 336 326 317 306 315 313 305 304 298 297 287 276 282
68 63 65 55 35 19 16 19 5 332 343 349 346 341 352 354 346 337 336 336 339 340 343 358 357 354 349 357 353 344 334 321 289 305 310 307 310 307 304 309 296 294 299
73 64 59 54 37 30 25 19 8 359 353 355 354 353 355 357 353 350 342 348 350 5 8 9 358 346 353 350 346 339 332 334 329 331 312 304 311 326 354 345 338 340 345
66 57 53 48 37 24 23 15 5 6 10 7 4 359 359 358 3 358 354 9 16 21 20 7 357 353 349 347 350 346 344 338 342 339 334 329 322 3 5 359 354 352 346
59 49 40 33 23 10 19 11 2 9 13 12 11 5 359 4 4 1 358 49 54 51 28 19 7 349 350 348 332 350 347 346 328 334 7 19 14 9 4 2 355 352 358
45 41 31 31 12 15 15 8 360 12 15 8 12 7 1 354 12 7 10 45 61 62 45 31 30 355 333 343 356 5 3 358 350 13 25 15 11 8 3 1 356 354 353